Probability
0 0 0 0 0 0 0 0 0 0 0 0 0 0 0 0 0 0 0 0 0 0 0 0 0 0 0 0 0 0 0 0 0 0 0 0 0 0 0 0 0 0 0
0 0 0 0 0 0 0 0 0 0 0 0 0 0 0 0 0 0 0 0 0 0 0 0 0 0 0 0 0 0 0 0 0 0 0 0 0 0 0 0 0 0 0
0 0 0 0 0 0 0 0 0 0 0 0 0 0 0 0 0 0 0 0 0 0 0 0 0 0 0 0 0 0 0 0 0 0 0 0 0 0 0 0 0 0 0
0 0 0 0 0 0 0 0 0 0 0 0 0 0 0 0 0 0 0 0 0 0 0 0 0 0 0 0 0 0 0 0 0 0 0 0 0 0 0 0 0 0 0
0 0 0 0 0 0 0 0 0 0 0 0 0 0 0 0 0 0 0 0 0 0 0 0 0 0 0 0 0 0 0 0 0 0 0 0 0 0 0 0 0 0 0
0 0 0 0 0 0 0 0 0 0 0 0 0 0 0 0 0 0 0 0 0 0 0 0 0 0 0 0 0 0 0 0 0 0 0 0 0 0 0 0 0 0 0
0 0 0 0 0 0 0 0 0 0 0 0 0 0 0 0 0 0 0 0 0 0 0 0 0 0 0 0 0 0 0 0 0 0 0 0 0 0 0 0 0 0 0
0 0 0 0 0 0 0 0 0 0 0 0 0 0 0 0 0 0 0 0 0 0 0 0 0 0 0 0 0 0 0 0 0 0 0 0 0 0 0 0 0 0 0
0 0 0 0 0 0 0 0 0 0 0 0 0 0 0 0 0 0 0 0 0 0 0 0 0 0 0 0 0 0 0 0 0 0 0 0 0 0 0 0 0 0 0
0 0 0 0 0 0 0 0 0 0 0 0 0 0 0 0 0 0 0 0 0 0 0 0 0 0 0 0 0 0 0 0 0 0 0 0 0 0 0 0 0 0 0
0 0 0 0 0 0 0 0 0 0 0 0 0 0 0 0 0 0 0 0 0 0 0 0 0 0 0 0 0 0 0 0 0 0 0 0 0 0 0 0 0 0 0
0 0 0 0 0 0 0 0 0 0 0 0 0 0 0 0 0 0 0 0 0 0 0 0 0 0 0 0 0 0 0 0 0 0 0 0 0 0 0 0 0 0 0
0 0 0 0 0 0 0 0 0 0 0 0 0 0 0 0 0 0 0 0 0 0 0 0 0 0 0 0 0 0 0 0 0 0 0 0 0 0 0 0 0 0 0
0 0 0 0 0 0 0 0 0 0 0 0 0 0 0 0 0 0 0 0 0 0 0 0 0 0 0 0 0 0 0 0 0 0 0 0 0 0 0 0 0 0 0
0 0 0 0 0 0 0 0 0 0 0 0 0 0 0 0 0 0 0 0 0 0 0 0 0 0 0 0 0 0 0 0 0 0 0 0 0 0 0 0 0 0 0
0 0 0 0 0 0 0 0 0 0 0 0 0 0 0 0 0 0 0 0 0 0 0 0 0 0 0 0 0 0 0 0 0 0 0 0 0 0 0 0 0 0 0
0 0 0 0 0 0 0 0 0 0 0 0 0 0 0 0 0 0 0 0 0 0 0 0 0 0 0 0 0 0 0 0 0 0 0 0 0 0 0 0 0 0 0
0 0 0 0 0 0 0 0 0 0 0 0 0 0 0 0 0 0 0 0 0 0 0 0 0 0 0 0 0 0 0 0 0 0 0 0 0 0 0 0 0 0 0
0 0 0 0 0 0 0 0 0 0 0 0 0 0 0 0 0 0 0 0 0 0 0 0 0 0 0 0 0 0 0 0 0 0 0 0 0 0 0 0 0 0 0
0 0 0 0 0 0 0 0 0 0 0 0 0 0 0 0 0 0 0 0 0 0 0 0 0 0 0 0 0 0 0 0 0 0 0 0 0 0 0 0 0 0 0
0 0 0 0 0 0 0 0 0 0 0 0 0 0 0 0 0 0 0 0 0 0 0 0 0 0 0 0 0 0 0 0 0 0 0 0 0 0 0 0 0 0 0
0 0 0 0 0 0 0 0 0 0 0 0 0 0 0 0 0 0 0 0 0 0 0 0 0 0 0 0 0 0 0 0 0 0 0 0 0 0 0 0 0 0 0
0 0 0 0 0 0 0 0 0 0 0 0 0 0 0 0 0 0 0 0 0 0 0 0 0 0 0 0 0 0 0 0 0 0 0 0 0 0 0 0 0 0 0
0 0 0 0 0 0 0 0 0 0 0 0 0 0 0 0 0 0 0 0 0 0 0 0 0 0 0 0 0 0 0 0 0 0 0 0 0 0 0 0 0 0 0
0 0 0 0 0 0 0 0 0 0 0 0 0 0 0 0 0 0 0 0 0 0 0 0 0 0 0 0 0 0 0 0 0 0 0 0 0 0 0 0 0 0 0
0 0 0 0 0 0 0 0 0 0 0 0 0 0 0 0 0 0 0 0 0 0 0 0 0 0 0 0 0 0 0 0 0 0 0 0 0 0 0 0 0 0 0
Height
5861 5862 5863 5864 5865 5866 5866 5866 5866 5866 5865 5864 5863 5862 5861 5859 5857 5855 5853 5850 5848 5845 5842 5839 5836 5833 5830 5828 5825 5822 5820 5819 5818 5817 5817 5818 5818 5819 5821 5822 5824 5826 5828
5860 5861 5862 5863 5864 5864 5865 5865 5865 5865 5864 5863 5862 5861 5860 5858 5856 5854 5852 5849 5847 5844 5841 5838 5835 5832 5829 5826 5823 5821 5819 5817 5816 5815 5815 5815 5817 5817 5818 5820 5821 5823 5825
5859 5860 5861 5862 5863 5863 5864 5864 5864 5863 5863 5862 5861 5860 5859 5857 5855 5853 5851 5848 5846 5843 5840 5837 5834 5831 5828 5825 5822 5819 5817 5816 5815 5814 5814 5814 5814 5815 5817 5818 5819 5820 5822
5858 5859 5860 5861 5862 5862 5862 5862 5862 5862 5862 5861 5860 5859 5857 5856 5854 5852 5850 5848 5845 5842 5839 5836 5833 5830 5827 5824 5822 5819 5817 5815 5814 5813 5813 5813 5813 5814 5815 5816 5817 5818 5819
5857 5859 5860 5860 5861 5861 5861 5862 5862 5861 5861 5860 5859 5858 5856 5855 5853 5851 5849 5846 5844 5841 5838 5835 5833 5830 5827 5824 5821 5819 5817 5815 5814 5813 5812 5812 5812 5812 5813 5814 5814 5815 5816
5856 5858 5859 5859 5860 5860 5861 5861 5861 5860 5859 5858 5857 5856 5855 5854 5852 5850 5848 5845 5843 5840 5838 5835 5832 5829 5827 5824 5821 5819 5817 5815 5814 5813 5812 5811 5811 5811 5811 5811 5812 5813 5814
5855 5857 5858 5858 5859 5859 5860 5860 5860 5859 5858 5857 5856 5855 5854 5852 5850 5848 5846 5844 5842 5839 5837 5834 5831 5829 5826 5824 5821 5819 5817 5815 5813 5812 5811 5810 5809 5809 5809 5809 5810 5810 5812
5854 5855 5856 5857 5858 5858 5858 5858 5858 5857 5856 5856 5854 5853 5852 5851 5849 5847 5845 5843 5841 5838 5836 5833 5831 5828 5826 5824 5821 5819 5817 5815 5813 5812 5810 5809 5808 5807 5807 5807 5808 5808 5809
5853 5854 5855 5856 5857 5857 5857 5857 5857 5856 5855 5854 5853 5852 5850 5849 5847 5845 5843 5841 5839 5837 5835 5833 5830 5828 5825 5823 5821 5819 5816 5814 5813 5811 5809 5808 5807 5806 5805 5805 5806 5807 5807
5853 5853 5854 5855 5855 5855 5855 5855 5855 5854 5853 5852 5851 5850 5849 5847 5845 5844 5842 5840 5838 5836 5833 5831 5829 5827 5825 5822 5820 5818 5816 5814 5812 5810 5808 5806 5805 5804 5804 5804 5804 5804 5805
5852 5852 5853 5853 5854 5854 5854 5853 5853 5852 5851 5850 5849 5848 5847 5845 5843 5842 5840 5838 5836 5834 5832 5830 5828 5826 5824 5821 5819 5817 5815 5813 5811 5809 5807 5805 5804 5803 5802 5802 5802 5802 5802
5851 5851 5852 5852 5852 5852 5852 5852 5851 5850 5849 5848 5847 5846 5844 5843 5841 5839 5838 5836 5834 5832 5830 5828 5826 5824 5822 5820 5818 5816 5813 5811 5810 5808 5806 5804 5803 5802 5801 5800 5800 5799 5799
5849 5850 5850 5850 5850 5850 5850 5850 5849 5848 5847 5846 5845 5843 5842 5840 5839 5837 5835 5833 5832 5830 5828 5826 5824 5822 5820 5818 5816 5813 5811 5809 5807 5806 5804 5802 5801 5800 5799 5798 5797 5796 5796
5847 5848 5848 5848 5848 5848 5848 5847 5846 5845 5844 5843 5842 5841 5839 5837 5836 5834 5832 5831 5829 5827 5825 5823 5821 5819 5817 5815 5813 5811 5809 5807 5805 5803 5801 5800 5798 5797 5796 5795 5794 5793 5792
5845 5845 5845 5845 5845 5845 5845 5844 5843 5842 5841 5840 5839 5838 5836 5834 5832 5831 5829 5827 5825 5823 5821 5819 5817 5815 5813 5811 5809 5808 5806 5804 5802 5800 5798 5797 5795 5794 5792 5791 5790 5789 5789
5842 5842 5842 5842 5841 5841 5841 5840 5840 5839 5838 5837 5835 5834 5832 5830 5829 5827 5825 5823 5821 5819 5817 5815 5813 5811 5809 5807 5805 5803 5801 5800 5798 5796 5794 5793 5791 5790 5788 5787 5786 5785 5784
5839 5839 5839 5838 5838 5837 5837 5836 5835 5834 5833 5832 5831 5829 5828 5826 5824 5823 5821 5819 5817 5815 5812 5810 5808 5806 5803 5801 5799 5797 5796 5794 5793 5791 5790 5788 5787 5785 5783 5782 5781 5780 5779
5836 5835 5835 5834 5834 5833 5832 5831 5830 5829 5828 5827 5825 5824 5823 5821 5819 5817 5815 5813 5811 5809 5806 5804 5801 5799 5797 5794 5793 5791 5789 5788 5786 5785 5783 5782 5780 5779 5777 5776 5775 5774 5773
5832 5831 5830 5830 5829 5828 5827 5826 5825 5824 5822 5821 5820 5818 5816 5814 5812 5810 5808 5806 5804 5801 5799 5796 5794 5791 5789 5787 5785 5783 5781 5780 5779 5777 5776 5775 5773 5772 5770 5769 5768 5767 5766
5827 5826 5825 5824 5823 5822 5821 5820 5819 5817 5816 5814 5813 5811 5809 5807 5805 5802 5800 5798 5796 5793 5790 5788 5785 5783 5780 5778 5776 5774 5773 5771 5770 5769 5768 5766 5765 5764 5763 5762 5761 5760 5759
5821 5820 5819 5818 5817 5816 5814 5813 5812 5810 5809 5807 5805 5803 5801 5798 5796 5794 5791 5789 5786 5784 5781 5779 5776 5773 5771 5768 5766 5764 5762 5761 5760 5759 5758 5757 5756 5755 5754 5753 5752 5751 5750
5815 5814 5813 5812 5810 5808 5807 5805 5804 5802 5800 5798 5796 5794 5791 5789 5786 5784 5781 5778 5776 5773 5771 5768 5766 5763 5760 5758 5756 5754 5752 5750 5749 5748 5747 5746 5745 5744 5743 5742 5741 5740 5740
5808 5807 5806 5804 5803 5801 5799 5797 5795 5793 5791 5789 5786 5784 5781 5779 5776 5773 5770 5767 5764 5762 5759 5757 5755 5752 5749 5747 5744 5742 5740 5738 5737 5736 5735 5734 5733 5732 5731 5730 5729 5729 5728
5801 5799 5798 5796 5794 5792 5790 5787 5785 5783 5781 5778 5776 5773 5770 5767 5764 5761 5758 5755 5752 5749 5747 5745 5742 5740 5737 5734 5732 5729 5727 5725 5724 5723 5722 5721 5720 5719 5718 5718 5717 5716 5716
5792 5790 5789 5787 5785 5782 5780 5777 5775 5772 5769 5766 5764 5761 5758 5755 5752 5749 5745 5742 5739 5735 5733 5730 5728 5725 5723 5720 5717 5715 5713 5711 5709 5708 5707 5706 5705 5705 5704 5704 5703 5703 5703
5783 5781 5778 5776 5774 5771 5769 5766 5763 5760 5757 5754 5751 5748 5744 5741 5738 5735 5732 5728 5724 5721 5717 5715 5712 5709 5707 5704 5702 5699 5697 5695 5693 5691 5691 5690 5689 5689 5689 5689 5689 5688 5688
Wind_Speed
10 9 9 7 5 4 3 2 1 2 2 3 4 5 7 8 9 10 11 12 13 14 14 15 15 14 14 14 13 12 11 9 8 8 8 8 9 10 12 12 12 14 14
9 9 9 8 6 5 3 2 2 2 3 4 5 6 7 8 9 10 11 12 13 14 14 14 15 15 15 14 13 12 10 9 7 7 6 7 8 9 10 12 12 13 14
9 9 8 7 6 5 3 3 2 2 3 4 5 6 7 8 9 10 11 12 13 14 14 14 15 14 14 14 13 12 10 8 7 6 5 6 7 8 9 11 12 13 14
8 8 7 6 5 4 3 2 2 3 4 4 5 6 7 8 9 10 11 12 12 13 14 15 15 14 14 13 13 12 10 9 7 6 5 5 5 6 8 9 11 13 14
8 7 6 5 5 4 3 2 2 3 4 4 5 6 7 8 9 10 11 11 12 13 14 14 14 14 14 13 12 12 11 9 7 6 5 4 4 5 6 8 10 12 13
8 7 6 5 5 4 3 3 3 4 4 5 6 6 7 8 9 10 10 11 12 13 13 13 14 14 14 13 12 12 11 9 8 7 6 4 4 4 5 7 9 10 12
8 8 6 5 5 4 4 3 4 4 5 6 6 7 7 8 9 10 10 11 12 12 13 13 13 13 13 13 12 12 11 10 8 8 7 5 4 4 5 6 8 10 11
8 7 6 6 5 4 4 4 4 5 5 6 7 7 8 9 9 10 10 11 12 12 12 12 12 13 12 12 12 12 11 10 9 8 8 7 5 5 5 6 7 9 10
6 6 6 5 5 4 4 4 5 5 6 6 7 7 8 9 9 10 10 11 12 12 12 12 12 12 12 12 12 12 12 11 10 9 8 8 7 6 5 5 6 8 9
6 5 5 5 5 5 5 5 5 5 6 6 7 8 8 9 10 10 11 11 12 12 12 12 12 12 12 12 12 12 12 11 10 10 9 8 7 6 5 6 7 8 9
6 5 5 5 5 5 5 5 6 6 6 7 8 9 10 10 10 11 11 12 12 12 13 12 12 12 12 13 13 13 12 12 11 10 10 9 7 6 6 6 7 8 9
5 5 5 6 6 5 5 6 6 7 7 8 9 9 10 10 10 11 12 12 13 13 13 13 13 13 13 13 13 13 13 13 12 11 11 10 8 8 8 8 8 9 10
6 6 6 6 6 6 7 7 7 7 8 8 9 10 10 11 11 12 12 13 13 14 14 14 14 14 14 14 14 14 14 14 13 12 11 11 10 10 10 10 10 10 11
6 7 8 7 8 8 8 8 8 8 9 9 10 11 12 12 13 13 14 14 15 15 15 15 15 16 15 16 16 16 16 15 15 14 13 12 12 12 12 12 11 12 12
8 9 9 9 9 10 10 10 10 11 11 12 13 13 14 14 15 15 15 16 16 16 17 17 17 17 17 17 17 17 17 17 16 16 15 14 14 14 14 14 13 13 13
9 9 10 10 11 12 12 12 13 13 14 15 15 15 15 16 16 17 17 17 17 18 19 19 19 19 20 20 19 19 19 18 17 17 17 17 16 16 16 16 16 15 15
10 11 12 12 13 14 14 15 15 16 17 17 18 18 18 18 18 19 20 20 20 20 20 21 22 22 22 22 22 22 21 20 20 19 19 19 19 18 18 18 17 17 17
12 13 14 14 15 16 16 17 18 19 19 20 20 21 21 21 21 22 22 23 23 24 24 24 25 25 25 25 25 25 24 23 23 22 22 22 21 21 20 20 19 19 19
14 15 16 17 17 18 19 20 20 21 22 22 23 23 24 24 24 25 26 26 26 27 28 28 28 28 27 27 27 27 26 26 25 25 24 24 24 23 23 22 21 21 21
17 17 18 19 20 21 21 22 23 23 24 25 25 26 27 27 28 28 29 29 29 30 30 31 31 30 30 30 30 29 29 29 28 28 28 27 26 26 26 26 25 24 24
19 20 21 22 23 23 24 25 26 26 27 28 29 29 30 31 31 32 32 32 32 33 33 33 33 32 32 32 32 32 32 32 32 31 31 31 30 30 30 29 29 28 28
22 23 24 25 26 26 27 28 29 30 30 31 32 33 34 34 34 35 35 35 36 35 35 35 35 35 35 35 35 35 35 35 35 35 34 35 34 34 33 33 32 32 32
26 26 27 28 28 29 30 31 32 33 33 34 35 36 37 37 38 38 38 38 39 39 38 38 38 38 38 38 39 39 39 39 38 38 38 38 38 37 37 36 35 34 34
28 29 30 30 31 32 33 34 35 36 36 38 39 39 40 40 41 41 41 42 42 42 42 42 41 41 42 42 43 43 43 43 42 42 41 41 41 41 40 39 38 37 37
31 32 33 33 34 35 36 37 38 39 40 41 42 43 43 43 43 44 45 45 45 45 45 45 45 45 46 46 47 47 47 47 46 45 45 44 44 43 42 41 41 41 40
33 35 36 36 37 38 39 40 41 42 43 44 45 45 45 45 46 46 47 47 47 47 48 48 49 49 50 50 50 50 50 49 49 48 47 47 47 46 46 45 45 44 43
Wind_Direction
184 185 184 182 183 190 192 196 255 292 309 328 338 344 345 347 349 349 348 348 348 349 349 348 347 345 342 339 337 335 331 323 311 294 276 262 252 241 235 232 229 225 224
187 188 189 187 188 192 194 217 259 294 315 330 338 341 341 344 346 346 347 348 350 352 351 350 348 347 346 343 341 338 335 330 321 305 283 265 256 243 235 232 229 227 226
185 189 193 191 192 193 203 230 257 297 314 325 331 334 336 340 343 343 345 347 348 351 352 350 349 349 349 348 347 347 342 336 329 317 297 276 262 248 237 233 230 228 227
182 188 190 190 195 193 213 242 272 299 309 320 327 330 333 337 341 344 344 344 346 349 352 352 351 352 352 353 353 353 351 347 340 329 310 287 269 253 242 238 233 229 228
181 186 191 195 193 200 215 237 276 295 303 317 322 327 331 334 338 342 342 342 344 347 350 352 353 353 354 355 355 357 358 356 351 345 334 311 283 266 251 241 235 231 229
182 188 194 200 196 203 216 236 272 290 302 314 319 321 326 330 333 337 340 341 342 343 346 350 353 354 355 356 357 358 359 357 354 349 343 327 299 275 259 250 241 232 229
183 190 199 203 204 218 230 251 276 288 300 311 316 320 324 328 332 335 337 339 340 341 343 346 350 354 355 356 356 357 356 354 351 346 341 332 311 287 265 258 248 237 232
188 194 200 201 212 229 245 263 276 287 298 307 314 318 322 325 329 333 334 337 339 340 341 344 347 350 352 354 355 355 353 352 349 344 340 334 317 294 276 262 253 245 237
189 197 198 204 219 236 253 271 281 292 300 305 313 317 320 324 327 330 331 334 337 339 340 341 343 344 347 350 352 352 350 348 346 343 338 335 323 302 284 266 254 248 243
195 198 199 217 233 245 257 273 288 296 300 306 311 312 314 318 321 323 327 330 332 335 336 337 340 340 342 345 347 348 347 344 342 341 338 333 327 314 293 274 262 255 251
204 207 214 229 244 253 262 272 284 294 300 305 309 311 312 315 317 318 321 325 327 329 331 332 332 334 336 338 339 340 341 340 337 336 334 332 322 314 298 285 273 264 258
212 220 235 244 252 258 266 274 283 291 299 305 308 311 311 313 316 317 319 321 322 323 324 325 325 326 328 329 330 333 333 331 329 328 327 324 316 306 297 289 281 271 264
227 233 242 252 258 264 272 280 287 292 297 304 309 310 312 312 314 316 316 316 316 316 317 318 319 320 321 322 323 323 324 326 323 319 317 315 310 304 298 292 286 278 271
243 246 252 257 261 266 274 281 288 293 297 303 308 313 313 313 313 313 313 313 313 313 313 313 313 313 314 315 315 316 316 317 315 313 313 312 309 303 297 292 286 279 274
257 261 261 264 267 271 276 281 286 292 295 298 303 308 308 308 309 309 310 309 309 309 310 310 309 308 308 309 309 310 310 310 309 306 305 304 304 301 297 291 286 280 276
265 269 272 274 274 276 278 281 285 288 291 293 296 300 301 302 304 304 305 306 306 305 305 305 305 304 304 303 303 304 304 304 303 301 300 299 299 297 294 289 285 281 277
272 275 276 278 279 280 280 282 286 288 290 292 293 295 296 297 298 300 300 301 302 303 304 303 301 300 299 298 297 297 298 298 297 296 296 296 295 294 291 287 283 281 277
277 276 277 279 282 283 283 284 285 287 288 290 291 292 294 295 295 296 297 298 298 299 300 301 301 300 298 296 294 292 292 292 292 292 291 291 291 290 288 286 282 279 275
279 279 280 282 283 283 283 284 285 286 287 288 289 291 293 294 294 295 296 296 297 297 298 298 298 298 296 295 293 291 290 289 288 288 288 287 286 285 284 283 281 279 275
279 280 281 282 284 285 284 284 285 286 287 287 289 291 292 293 294 295 295 295 296 296 296 296 295 295 294 293 292 291 289 287 286 285 285 284 282 281 280 279 278 277 275
279 281 282 283 284 285 285 285 286 287 288 288 289 290 292 293 293 293 293 294 294 295 294 294 293 292 291 291 290 289 288 286 284 283 282 281 280 279 279 277 276 275 273
280 282 283 283 284 285 285 286 287 288 288 289 289 290 291 292 293 293 293 293 293 293 292 291 291 290 289 288 288 287 286 285 283 281 280 279 278 278 277 276 275 273 272
281 283 284 284 285 286 287 287 287 287 288 289 290 291 291 291 291 292 292 292 292 291 291 290 289 289 288 287 286 285 285 284 283 281 279 278 277 276 276 275 273 271 270
281 283 284 285 285 286 287 287 287 287 288 289 289 290 291 291 291 292 292 292 291 290 289 289 288 287 287 286 285 285 284 283 282 280 279 278 277 275 274 272 271 270 268
281 283 284 285 286 286 286 287 287 288 289 289 290 291 291 291 291 291 292 292 291 289 289 288 287 287 286 285 285 284 283 282 281 279 278 277 276 273 271 270 269 269 268
281 283 284 286 287 288 288 288 288 289 290 290 291 291 291 291 291 291 291 291 290 289 289 288 288 287 286 285 285 284 283 281 280 278 276 275 274 272 270 268 268 267 267